TimeEST,TemperatureF,Dew PointF,Humidity,Sea Level PressureIn,VisibilityMPH,Wind Direction,Wind SpeedMPH,Gust SpeedMPH,PrecipitationIn,Events,Conditions,WindDirDegrees,DateUTC
12:27 AM,55.4,53.6,94,29.76,9.0,NE,17.3,24.2,0.04,Rain,Light Rain,50,2013-02-08 05:27:00
12:53 AM,55.9,54.0,93,29.72,3.0,ENE,16.1,24.2,0.17,Rain,Rain,60,2013-02-08 05:53:00
1:53 AM,55.9,54.0,93,29.66,5.0,ENE,17.3,23.0,0.21,Rain,Rain,60,2013-02-08 06:53:00
2:19 AM,59.0,53.6,82,29.62,6.0,East,19.6,42.6,0.07,Rain,Rain,90,2013-02-08 07:19:00
2:34 AM,57.2,55.4,94,29.61,10.0,NE,12.7,-,0.09,Rain,Light Rain,50,2013-02-08 07:34:00
2:43 AM,57.2,55.4,94,29.61,7.0,NE,10.4,-,0.09,Rain,Rain,50,2013-02-08 07:43:00
2:53 AM,57.0,55.0,93,29.60,2.5,NNE,8.1,-,0.13,Rain,Heavy Rain,20,2013-02-08 07:53:00
3:03 AM,55.4,55.4,100,29.58,4.0,NE,6.9,-,0.02,Rain,Light Rain,40,2013-02-08 08:03:00
3:53 AM,53.1,51.1,93,29.58,10.0,NNW,17.3,25.3,0.06,Rain,Light Rain,330,2013-02-08 08:53:00
4:53 AM,51.1,48.9,92,29.61,10.0,NNW,19.6,24.2,0.01,,Overcast,330,2013-02-08 09:53:00
5:53 AM,48.9,45.0,86,29.66,10.0,NW,21.9,27.6,N/A,,Overcast,320,2013-02-08 10:53:00
6:15 AM,48.2,44.6,87,29.68,10.0,NW,23.0,27.6,N/A,,Overcast,320,2013-02-08 11:15:00
6:53 AM,48.2,44.6,87,29.71,10.0,NW,19.6,28.8,N/A,,Overcast,310,2013-02-08 11:53:00
7:53 AM,48.0,44.1,86,29.74,10.0,NW,17.3,26.5,N/A,,Overcast,320,2013-02-08 12:53:00
8:53 AM,48.9,45.0,86,29.78,10.0,NW,13.8,25.3,N/A,,Overcast,320,2013-02-08 13:53:00
9:21 AM,51.8,46.4,82,29.80,10.0,NNW,15.0,-,N/A,,Overcast,330,2013-02-08 14:21:00
9:50 AM,53.6,44.6,72,29.81,10.0,NNW,16.1,-,N/A,,Partly Cloudy,330,2013-02-08 14:50:00
9:53 AM,53.1,45.0,74,29.81,10.0,NNW,11.5,21.9,N/A,,Partly Cloudy,330,2013-02-08 14:53:00
10:53 AM,55.9,46.0,69,29.84,10.0,NW,19.6,-,N/A,,Clear,310,2013-02-08 15:53:00
11:53 AM,57.0,46.0,67,29.83,10.0,WNW,18.4,26.5,N/A,,Clear,300,2013-02-08 16:53:00
12:53 PM,59.0,46.9,64,29.83,10.0,WNW,16.1,23.0,N/A,,Clear,300,2013-02-08 17:53:00
1:53 PM,57.9,45.0,62,29.83,10.0,WNW,13.8,-,N/A,,Clear,290,2013-02-08 18:53:00
2:53 PM,59.0,45.0,60,29.84,10.0,WNW,16.1,21.9,N/A,,Clear,290,2013-02-08 19:53:00
3:53 PM,60.1,45.0,57,29.84,10.0,WNW,10.4,-,N/A,,Clear,290,2013-02-08 20:53:00
4:53 PM,60.1,45.0,57,29.85,10.0,West,10.4,-,N/A,,Clear,270,2013-02-08 21:53:00
5:53 PM,57.9,45.0,62,29.88,10.0,West,10.4,-,N/A,,Mostly Cloudy,280,2013-02-08 22:53:00
6:53 PM,57.0,45.0,64,29.90,10.0,West,5.8,-,N/A,,Mostly Cloudy,270,2013-02-08 23:53:00
7:53 PM,55.0,45.0,69,29.92,10.0,West,5.8,-,N/A,,Mostly Cloudy,270,2013-02-09 00:53:00
8:53 PM,52.0,45.0,77,29.94,10.0,West,3.5,-,N/A,,Scattered Clouds,280,2013-02-09 01:53:00
9:53 PM,51.1,45.0,80,29.97,10.0,West,6.9,-,N/A,,Partly Cloudy,270,2013-02-09 02:53:00
10:53 PM,53.1,42.1,66,29.99,10.0,NW,12.7,18.4,N/A,,Clear,310,2013-02-09 03:53:00
11:53 PM,48.9,37.0,64,30.02,10.0,NNW,13.8,-,N/A,,Clear,330,2013-02-09 04:53:00